LiveATC.Net - Listen to live air traffic control over the Internet! Contact for advertising information

ICAO: KGMU  IATA: GMU   Airport: Greenville Downtown Airport
City: Greenville   State/Province: South Carolina
Country: United States   Continent: North America
KGMU METAR Weather: KGMU 250153Z 00000KT 10SM CLR 09/M02 A3044 RMK AO2 SLP311 T00891022
KGMU Flight Activity (FlightAware)
KGMU Airport Info   (AirNav) (iFlightPlanner)
KGMU VFR Sectional Chart   (iFlightPlanner) 
KGMU IFR Low Chart   (iFlightPlanner) 
KGMU Tower
Feed Status: DOWN
Last heard on: 2015-09-18 16:25:03 (67 days 9 hours 46 minutes ago)
KGMU Tower Audio Archives
Greenville Tower119.900


Unauthorized use prohibited. See Terms of Service

Find LiveATC Audio Streams

Airport/ARTCC Code

(e.g., 124.400, 128.75)
Site-wide search

Browse LiveATC Feeds
LiveATC Coverage Map
Top 50 LiveATC Feeds
Bad Weather Areas

Offer a LiveATC Feed
Press Inquiries

LiveATC on iPhone
LiveATC on Android

Windows Phone
Windows 8/10

LiveATC Mobile
(Mobile browser)

ATC Audio Archives
Interesting Recordings

LiveATC Forums

Home Page
Make a Donation
LiveATC Bookstore

Terms of Use
Privacy Policy

ATC/Radar Sites
U.S. ARTCC Freqs
Canadian Air Freqs


FAA Airport Status
Nat'l Airspace Status
Arrival Demand Charts

Server Software By:

Please make a donation to help us keep growing!